This is the latest recevied weather packets stored in our database for station/object LZ1PDB-12. If no packets are shown the sender has not sent any weather packets the latest 10 day(s).
| Time | Temp. | Humidity | Pressure | Rain* | Wind** | Luminosity | Snow |
|---|---|---|---|---|---|---|---|
| 1777479886 | 18.33° C | 46% | 1021.2 hPa | - | - | - | - |
| 1777478986 | 18.33° C | 46% | 1021 hPa | - | - | - | - |
| 1777478085 | 18.89° C | 45% | 1020.8 hPa | - | - | - | - |
| 1777477185 | 18.89° C | 45% | 1020.6 hPa | - | - | - | - |
| 1777476284 | 18.89° C | 44% | 1020.5 hPa | - | - | - | - |
| 1777475383 | 19.44° C | 43% | 1020.3 hPa | - | - | - | - |
| 1777474482 | 19.44° C | 43% | 1020.3 hPa | - | - | - | - |
| 1777473582 | 20° C | 42% | 1020.4 hPa | - | - | - | - |
| 1777472678 | 20° C | 42% | 1020.5 hPa | - | - | - | - |
| 1777471776 | 20° C | 42% | 1020.5 hPa | - | - | - | - |
| 1777470875 | 20° C | 42% | 1020.5 hPa | - | - | - | - |
| 1777469974 | 20° C | 42% | 1020.5 hPa | - | - | - | - |
| 1777469074 | 20.56° C | 41% | 1020.7 hPa | - | - | - | - |
| 1777468173 | 20.56° C | 42% | 1020.6 hPa | - | - | - | - |
| 1777467272 | 20.56° C | 42% | 1020.8 hPa | - | - | - | - |
| 1777466371 | 20.56° C | 42% | 1020.6 hPa | - | - | - | - |
| 1777465470 | 20.56° C | 42% | 1020.6 hPa | - | - | - | - |
| 1777464567 | 20.56° C | 42% | 1020.6 hPa | - | - | - | - |
| 1777463667 | 20.56° C | 42% | 1020.7 hPa | - | - | - | - |
| 1777462766 | 20.56° C | 42% | 1020.7 hPa | - | - | - | - |
| 1777461865 | 20° C | 42% | 1020.8 hPa | - | - | - | - |
| 1777460965 | 19.44° C | 44% | 1020.9 hPa | - | - | - | - |
| 1777460061 | 19.44° C | 45% | 1021 hPa | - | - | - | - |
| 1777459160 | 18.89° C | 44% | 1021.2 hPa | - | - | - | - |
| 1777458260 | 18.89° C | 44% | 1021.4 hPa | - | - | - | - |
* Rain since midnight (hover to see other rain measurements)
** Current wind speed in m/s (hover to see current wind gust speed)